FENGYUN 1C DEB *, 48518

Orbit data source: Space-Track

FENGYUN 1C DEB *, 48518 is space debris in SSO originally from a launch on Mon, 10 May 1999 UTC launched from the Taiyaun Space Center, China (TSC). Fengyun 1C debris stems from the Chinese weather satellite Fengyun-1C, which was intentionally destroyed by a Chinese anti-satellite missile in 2007. This event dramatically increased the amount of space debris, with thousands of trackable fragments posing hazards to satellites and human spaceflight. The Fengyun 1C debris cloud has become a focal point in discussions about space sustainability and the need for international regulations to prevent the creation of new debris.

Loading next visibility...
Identifier
48518, 1999-025FCG
Orbit
SSO
Country
Flag of CNCN / PRC
Related business
Manufacturer
Unknown
Mission
Spacecraft
Bus & Motor
Unknown
Mass
Unknown
Launch date (UTC)
1999-05-10 (27 years ago)
Launch vehicle
Unknown
Launch site
Taiyaun Space Center, China (TSC)
Object type
Payload
Rocket body
Debris
Shape & HBR
Unknown shape, 0.1 m
Radar Cross Section
Small (<0.1 m²)

Expand to show TLE details & history
Last TLE update: 2 weeks ago

TLE from 2 weeks ago
0 FENGYUN 1C DEB *
1 48518U 99025FCG 26152.69410392  .00004673  00000-0  24332-2 0  9997
2 48518  99.2591 124.0726 0129845 343.1171  16.5697 14.10857611625791
Epoch: 2026-06-01T16:39Z
TLE epoch observation values (Epoch: 2026-06-01T16:39:30.578Z)
Latitude
-0.00007°
Longitude
-15.98255°
Altitude
769.37 km
Speed
7.516 km/s
True Right ascension
08h 16m 17s
True Declination
0° 00' 00"
Sunlit
Object was in daylight at epoch
Visualization orbit readout
Latitude
Unknown
Longitude
Unknown
Altitude
Unknown
Speed
Unknown
Apparent Right ascension
Unknown
Apparent Declination
Unknown
Sunlit
N/A
Visualization observer readout
Local Sidereal Time
14:18:50
Azimuth
Unknown
Elevation
Unknown
Doppler factor
Unknown
Orbital elements
Apogee altitude
947.537 km
Perigee altitude
759.735 km
Semi-major axis
7,231.773 km
Eccentricity
0.01298
Inclination
99.2591°
RAAN
124.0726°
Arg. of periapsis
343.1171°
True anomaly
17.00072°
Mean anomaly
16.5697°
Eccentric anomaly
16.78454°
Mean motion
3.5292 °/min
Orbital period
102.01 mins
BSTAR
0.0024332
Loading maneuver chart data...
Computing Atmospheric mass density...
Loading historical data...
Loading historical data...
Loading historical data...
Loading historical data...
Loading historical data...
Loading historical data...
Loading historical data...

Documentation

Showing up to 5 results
|